カタログに戻る

YAOGAN 21

運用中軍事SSO
NORAD 40143·PAYLOAD·🇨🇳 China

打ち上げ Sep 8, 2014 から Taiyuan Satellite Launch Center

Loading…

次のパス (今後24時間)

TLE

最新Source: Space-Track

元期: Sep 14, 2026, 14:47 UTC

1 40143U 14053A   26257.61614353  .00003640  00000-0  13833-3 0  9990
2 40143  97.1399 294.0423 0009205 127.0111 233.1973 15.27363944668603

AllMySatでYAOGAN 21をリアルタイム追跡

Download on the App Store